Location: Kolin
(50.0330°N, 15.2000°E)
Time: 19:52:24
(UTC+01:00)

ISS - Pass Details

Date: 22 November 2019
Orbit: 411 x 421 km, 51.6° (Epoch: 07 December)

Event Time Altitude Azimuth Distance (km) Brightness Sun altitude
Rises 18:25:53 0° 213° (SSW) 2,347 0.6 -21.7°
Reaches altitude 10° 18:28:13 10° 199° (SSW) 1,490 -0.7 -22.1°
Enters shadow 18:29:15 16° 186° (S) 1,172 -1.4 -22.3°
